Location: Harwich
(41.7160°N, 69.9939°W)
Time: 01:32:24
(UTC+02:00)

AO-73 - Pass Details

Date: 17 September 2024
Orbit: 548 x 615 km, 97.7° (Epoch: 10 October)

Event Time Altitude Azimuth Distance (km) Brightness Sun altitude
Rises 09:31:43 0° 17° (NNE) 2,800 ? -30.7°
Reaches altitude 10° 09:33:56 10° 21° (NNE) 1,885 ? -30.3°
Enters shadow 09:36:15 31° 37° (NE) 1,013 ? -30.0°
